www.pogodaiklimat.ru

Погода и климат >> Архив погоды >> Италия >> Понца


ПОГОДА на Понце

  • Прогноз погоды на Понце
  • Монитор погоды на Понце

АРХИВ ПОГОДЫ на Понце

Время (UTC), дата Ветер
(напр.,м/с)
 
Видим.   Явления Облачность Т
(С)
Тd
(С)
f
(%)
Тe
(С)
Тes
(С)
Комфортность P
(гПа)
Po
(гПа)
Тmin
(С)
Tmax
(С)
R
(мм)
R24
(мм)
S
(см)
01 17.02 СЗ 2 20 км ясно +10.6 +9.2 91 +9 +9 1029.6 1007.0
02 17.02 СЗ 2 20 км ясно +10.4 +8.0 85 +9 +9 1029.5 1006.9
03 17.02 С 4 20 км ясно +10.2 +9.1 93 +8 +8 1028.7 1006.1
04 17.02 С 2 20 км ясно +10.2 +8.8 91 +9 +9 1028.9 1006.3
05 17.02 С 1 20 км ясно +10.4 +9.8 96 +10 +10 1028.9 1006.3
06 17.02 СЗ 3 20 км ясно +10.2 +9.4 95 +8 +8 1028.9 1006.3 +10.0
07 17.02 З 2 20 км ясно +10.6 +10.1 97 +9 +11 1029.2 1006.6
08 17.02 СЗ 2 20 км ясно +11.0 +9.3 89 +10 +13 1029.4 1006.9
09 17.02 З 2 20 км ясно +11.4 +9.3 87 +10 +16 1029.5 1007.0
10 17.02 З 2 20 км 4/4 300 м
[Cu hum]
+12.2 +10.8 91 +11 +16 1029.6 1007.1
11 17.02 З 2 20 км 6/6 300 м
[Cu hum]
+13.0 +10.5 85 +12 +15 1029.5 1007.1
12 17.02 СЗ 5 20 км ясно +12.4 +10.1 86 +10 +15 1028.9 1006.5
13 17.02 З 2 20 км 4/0
[Ac trans]
+12.4 +10.6 89 +11 +16 1028.4 1006.0
14 17.02 З 4 20 км 5/5 300 м
[Cu hum]
+12.8 +10.9 88 +11 +12 1027.7 1005.4
15 17.02 З 4 20 км 3/0
[Ac trans]
+12.8 +10.9 88 +11 +12 1028.0 1005.7
16 17.02 З 2 20 км 3/0
[Ac trans]
+11.6 +9.9 89 +10 +10 1027.5 1005.1
17 17.02 З 2 10 км ясно +11.0 +9.7 92 +10 +10 1027.5 1005.0
18 17.02 З 4 20 км ясно +10.6 +9.7 94 +8 +8 1027.5 1005.0 +13.5
19 17.02 З 4 20 км ясно +10.6 +10.1 97 +8 +8 1027.5 1005.0
20 17.02 СЗ 2 20 км ясно +10.4 +10.0 97 +9 +9 1027.5 1005.0
21 17.02 З 2 10 км ясно +10.8 +10.0 95 +9 +9 1027.7 1005.2
22 17.02 З 2 20 км ясно +10.4 +9.6 95 +9 +9 1027.8 1005.3
23 17.02 З 2 20 км ясно +10.4 +9.8 96 +9 +9 1027.8 1005.3
00 18.02 З 2 10 км 4/0
[Ac trans]
+10.2 +9.9 98 +8 +8 1027.7 1005.1
01 18.02 З 2 10 км 4/0
[Ac trans]
+10.2 +9.9 98 +8 +8 1027.7 1005.1
02 18.02 З 1 10 км 3/0
[Ac trans]
+10.2 +9.9 98 +10 +10 1027.6 1005.0
03 18.02 З 3 10 км 4/0 2000 м
[Ac trans]
+10.2 +9.6 96 +8 +8 1027.6 1005.0
04 18.02 З 1 10 км 5/0
[Ac trans]
+10.4 +9.8 96 +10 +10 1026.8 1004.3
05 18.02 З 2 10 км 6/0
[Ac trans]
+10.8 +10.2 96 +10 +10 1027.0 1004.5
06 18.02 СЗ 2 10 км 8/4 600 м
[Sc Ac trans]
+10.2 +9.4 95 +9 +9 1026.6 1004.1 +9.8
07 18.02 СЗ 1 10 км 8/5 540 м
[Sc Ac trans]
+10.2 +8.8 91 +11 +11 1026.5 1004.0
08 18.02 З 1 10 км 9/5 500 м
[Sc Ac trans]
+10.6 +9.0 90 +11 +12 1026.5 1004.0
09 18.02 З 1 10 км 9/6 500 м
[Sc Ac trans]
+11.0 +9.3 89 +12 +13 1027.2 1004.7
10 18.02 З 2 10 км 9/6 570 м
[Sc Ac trans]
+11.8 +9.0 83 +11 +13 1026.7 1004.3
11 18.02 З 1 10 км 9/6 540 м
[Sc Ac trans]
+11.8 +8.3 79 +12 +14 1026.9 1004.5
12 18.02 З 3 10 км 9/6 540 м
[Sc Ac trans]
+12.2 +8.3 77 +11 +13 1026.3 1003.9
13 18.02 0 10 км 10/5 450 м
[Cu med, cong Ac trans]
+12.6 +8.5 76 1025.5 1003.2
14 18.02 З 1 10 км 10/5 300 м
[Cu med, cong Ac trans]
+12.4 +8.5 77 +12 +13 1025.3 1003.0
15 18.02 З 1 10 км 10/5 450 м
[Cu med, cong Ac trans]
+12.0 +8.7 80 +12 +12 1025.2 1002.9
16 18.02 З 2 10 км 10/5 450 м
[Cu med, cong Ac trans]
+11.8 +8.8 82 +11 +11 1024.7 1002.3
17 18.02 СЗ 1 10 км 10/0 300 м
[]
+11.2 +8.3 82 +11 +11 1024.4 1002.0
18 18.02 З 3 10 км 10/5 300 м
[Cu hum Ac trans]
+11.0 +8.4 84 +9 +9 1024.6 1002.2 +13.0
19 18.02 З 3 10 км 10/5 270 м
[Cu med, cong Ac trans]
+10.8 +8.7 87 +9 +9 1024.4 1002.0
20 18.02 СЗ 1 10 км 10/0 270 м
[]
+10.4 +8.3 87 +10 +10 1024.7 1002.2
21 18.02 З 1 10 км 9/0 450 м
[]
+10.2 +8.1 87 +10 +10 1024.8 1002.3
22 18.02 З 2 10 км 9/9 300 м
[Cu med, cong]
+10.2 +8.0 86 +9 +9 1024.9 1002.4
23 18.02 З 2 10 км 9/9 450 м
[Cu med, cong]
+10.2 +8.0 86 +9 +9 1024.9 1002.4
00 19.02 СЗ 2 10 км 9/0 300 м
[]
+10.0 +8.1 88 +8 +8 1024.7 1002.2
01 19.02 З 3 10 км 9/9 450 м
[Cu med, cong]
+10.0 +7.9 87 +8 +8 1024.7 1002.2
02 19.02 СЗ 1 4000 м дымка 9/9 450 м
[Cu med, cong]
+10.0 +7.6 85 +9 +9 1023.5 1001.0
03 19.02 СЗ 1 4000 м дымка 9/9 300 м
[Cu med, cong]
+10.2 +7.8 85 +10 +10 1023.7 1001.2
04 19.02 СЗ 2 4000 м дымка 9/9 300 м
[Cu med, cong]
+10.0 +7.6 85 +9 +9 1023.6 1001.1
06 19.02 штиль 0 4000 м дымка 10/5 300 м
[Cu med, cong Ac trans]
+10.2 +7.8 85 +10 +10 1023.6 1001.1 +10.0
07 19.02 0 8000 м дымка 10/5 300 м
[Cu med, cong Ac trans]
+10.0 +7.6 85 1023.7 1001.2
08 19.02 штиль 0 4000 м дымка 10/10 270 м
[St]
+10.4 +7.8 84 +10 +10 1024.5 1002.0
09 19.02 штиль 0 4000 м дымка 10/10 300 м
[St]
+10.4 +7.5 82 +10 +10 1024.6 1002.1
10 19.02 З 1 4000 м дымка 10/10 300 м
[St]
+11.2 +7.7 79 +11 +11 1024.6 1002.2
11 19.02 С 1 10 км 10/10 300 м
[St]
+11.2 +7.9 80 +12 +12 1024.5 1002.1
12 19.02 З 2 10 км 10/10 450 м
[St]
+11.4 +7.7 78 +11 +11 1024.2 1001.8
13 19.02 З 1 20 км 10/10 1500 м
[Cu med, cong]
+11.4 +7.7 78 +12 +12 1023.6 1001.2
14 19.02 С 1 20 км 8/3 1500 м
[Cu med, cong Ac trans]
+11.6 +7.3 75 +12 +14 1023.4 1001.0
15 19.02 З 1 20 км 3/0
[Cs]
+11.6 +7.5 76 +11 +13 1023.3 1000.9
16 19.02 С 1 20 км ясно +10.6 +6.6 76 +11 +12 1022.9 1000.5
17 19.02 СВ 1 10 км ясно +10.0 +6.9 81 +11 +11 1022.7 1000.2
18 19.02 штиль 0 20 км ясно +9.6 +7.0 84 +9 +9 1022.9 1000.4 +12.0
19 19.02 штиль 0 20 км ясно +9.4 +7.0 85 +9 +9 1023.3 1000.8
20 19.02 З 2 20 км ясно +9.4 +7.2 86 +8 +8 1023.4 1000.9
21 19.02 СЗ 2 20 км ясно +9.2 +7.2 87 +8 +8 1023.6 1001.0
22 19.02 СЗ 2 20 км 5/5 1350 м
[Cu hum]
+9.6 +7.4 86 +8 +8 1023.6 1001.1
23 19.02 СЗ 4 20 км 10/10 1350 м
[Cu med, cong]
+9.6 +7.4 86 +7 +7 1023.6 1001.1
00 20.02 З 3 20 км 10/10 1350 м
[Cu med, cong]
+9.8 +7.2 84 +8 +8 1023.6 1001.1
01 20.02 СЗ 2 20 км 10/10 1350 м
[Cu med, cong]
+10.0 +6.9 81 +8 +8 1023.5 1001.1
02 20.02 СЗ 3 20 км 10/10 1350 м
[Cu med, cong]
+10.0 +6.5 79 +8 +8 1023.5 1001.1
03 20.02 СЗ 1 20 км 10/10 1350 м
[Cu med, cong]
+10.0 +6.5 79 +11 +11 1023.5 1001.0
04 20.02 СЗ 1 20 км 8/8 1350 м
[Cu med, cong]
+10.0 +7.6 85 +9 +9 1023.4 1000.9
05 20.02 С 2 20 км ясно +9.8 +8.2 90 +8 +8 1023.3 1000.8
06 20.02 С 3 10 км 3/3 1350 м
[Cu med, cong]
+9.6 +7.9 89 +7 +7 1023.3 1000.8 +9.0
07 20.02 С 1 10 км ясно +9.0 +7.3 89 +8 +10 1023.6 1001.0
08 20.02 С 3 10 км ясно +10.2 +7.6 84 +8 +11 1024.4 1001.9
09 20.02 С 2 10 км ясно +11.6 +9.0 84 +11 +17 1024.3 1001.9
10 20.02 С 1 10 км ясно +12.0 +8.3 78 +12 +21 1024.5 1002.1
11 20.02 С 2 10 км ясно +13.0 +8.9 76 +12 +21 1024.5 1002.2
12 20.02 СЗ 2 10 км ясно +12.0 +8.1 77 +11 +19 1024.4 1002.0
13 20.02 З 2 20 км ясно +12.4 +8.3 76 +12 +18 1024.3 1001.9
14 20.02 З 4 20 км ясно +12.6 +8.5 76 +11 +13 1023.7 1001.4
15 20.02 З 4 20 км ясно +12.4 +8.7 78 +11 +12 1023.7 1001.4
16 20.02 З 4 20 км ясно +11.6 +8.3 80 +9 +9 1023.3 1000.9
17 20.02 З 4 10 км ясно +10.9 +9.2 89 +9 +9 1023.4 1001.0
18 20.02 З 3 20 км ясно +10.2 +8.6 90 +8 +8 1023.9 1001.4 +13.0
19 20.02 З 3 10 км ясно +10.2 +8.6 90 +8 +8 1024.6 1002.1
20 20.02 СЗ 5 10 км ясно +10.6 +9.0 90 +8 +8 1024.5 1002.1
21 20.02 З 3 10 км ясно +10.8 +9.4 91 +9 +9 1024.9 1002.5
22 20.02 З 3 10 км ясно +10.8 +9.4 91 +9 +9 1024.6 1002.2
23 20.02 З 5 10 км ясно +11.0 +9.8 92 +8 +8 1025.0 1002.5
00 21.02 СЗ 2 10 км ясно +10.6 +9.5 93 +10 +10 1025.4 1002.9
01 21.02 СЗ 2 4000 м дымка ясно +10.6 +9.7 94 +9 +9 1025.5 1003.0
02 21.02 СЗ 2 4000 м дымка ясно +10.6 +10.1 97 +9 +9 1025.6 1003.1
03 21.02 З 4 8000 м дымка ясно +10.4 +9.8 96 +8 +8 1025.7 1003.2
04 21.02 СЗ 4 9000 м дымка 3/3 450 м
[Cu hum]
+10.4 +10.0 97 +8 +8 1025.7 1003.2
05 21.02 С 3 10 км ясно +9.8 +9.4 97 +8 +8 1026.2 1003.6
06 21.02 штиль 0 10 км ясно +9.6 +9.3 98 +9 +9 1026.1 1003.6 +9.6
07 21.02 С 2 10 км ясно +10.0 +9.1 94 +8 +9 1026.5 1003.9
08 21.02 С 2 10 км ясно +10.4 +8.5 88 +9 +13 1026.7 1004.2
09 21.02 штиль 0 4000 м дымка 3/3 450 м
[Cu hum]
+12.0 +8.5 79 +12 +17 1027.2 1004.8
10 21.02 штиль 0 4000 м дымка 3/3 240 м
[Cu hum]
+13.4 +8.3 71 +13 +21 1027.3 1005.0
11 21.02 0 8000 м дымка 3/3 150 м
[Cu hum]
+13.8 +9.1 73 1027.3 1005.1
12 21.02 З 1 4000 м дымка 3/3 210 м
[Cu hum]
+13.4 +9.8 79 +14 +20 1027.4 1005.1
13 21.02 З 3 8000 м дымка ясно +12.6 +10.0 84 +11 +16 1026.8 1004.5
14 21.02 СЗ 2 4000 м дымка ясно +12.6 +10.1 85 +12 +17 1026.6 1004.3
15 21.02 СЗ 2 10 км ясно +12.0 +9.6 85 +11 +13 1026.5 1004.1
16 21.02 З 3 10 км ясно +11.6 +10.0 90 +10 +10 1026.3 1003.9
17 21.02 З 4 10 км ясно +11.4 +9.8 90 +9 +9 1026.4 1004.0
18 21.02 З 7 10 км ясно +11.0 +9.7 92 +8 +8 1026.7 1004.3 +14.0
19 21.02 З 6 10 км ясно +11.0 +10.5 97 +8 +8 1026.4 1004.0
20 21.02 З 6 10 км ясно +11.0 +10.5 97 +8 +8 1026.4 1004.0
21 21.02 З 3 10 км 3/0 1500 м
[Ac trans]
+11.0 +10.5 97 +9 +9 1026.5 1004.1
22 21.02 З 3 10 км 4/0
[Ac trans]
+11.0 +10.7 98 +9 +9 1026.3 1003.9
23 21.02 З 6 10 км 4/0
[Ac trans]
+11.0 +10.2 95 +8 +8 1026.2 1003.8
00 22.02 З 4 10 км ясно +11.0 +10.5 97 +9 +9 1026.0 1003.6
01 22.02 З 7 10 км ясно +11.0 +10.5 97 +8 +8 1025.8 1003.4
02 22.02 СЗ 3 10 км 9/6 420 м
[Cu Sc Ac und]
+11.0 +10.9 99 +9 +9 1025.4 1003.0
03 22.02 СЗ 6 10 км 9/6 420 м
[Cu Sc Ac und]
+11.0 +10.9 99 +8 +8 1025.3 1002.9
04 22.02 З 3 10 км 5/5 450 м
[Sc]
+11.0 +10.5 97 +9 +9 1024.4 1002.0
05 22.02 СЗ 3 10 км 3/3 450 м
[Sc diur, vesp]
+10.6 +10.0 96 +9 +9 1024.1 1001.7
06 22.02 З 5 10 км 8/8 450 м
[Sc]
+10.6 +10.6 100 +8 +8 1023.7 1001.3 +10.4
07 22.02 З 2 10 км 8/8 450 м
[Sc]
+11.0 +10.7 98 +10 +10 1023.7 1001.3
08 22.02 З 2 10 км 9/9 450 м
[Sc]
+11.0 +10.9 99 +9 +10 1023.7 1001.3
09 22.02 СЗ 1 4000 м дымка 5/5 300 м
[Cu hum]
+11.4 +10.9 97 +11 +15 1023.6 1001.2
10 22.02 СЗ 2 4000 м дымка 3/3 300 м
[Cu hum]
+11.8 +10.7 93 +11 +17 1023.4 1001.1
11 22.02 З 2 4000 м дымка ясно +11.6 +10.0 90 +11 +20 1022.6 1000.3
12 22.02 З 5 4000 м дымка ясно +11.4 +9.8 90 +9 +13 1021.9 999.6
13 22.02 З 6 7000 м дымка 3/0
[Ci fib]
+11.6 +10.2 91 +9 +11 1021.1 998.8
14 22.02 СЗ 5 7000 м дымка 4/0
[Ci fib]
+12.0 +10.6 91 +10 +12 1021.2 998.9
15 22.02 З 3 4000 м дымка 3/0
[Ci fib]
+12.2 +11.1 93 +10 +12 1020.4 998.2
16 22.02 З 3 4000 м дымка ясно +11.6 +11.0 96 +10 +10 1020.2 997.9
17 22.02 В 2 4000 м дымка ясно +11.0 +10.4 96 +10 +10 1020.3 998.0
18 22.02 СЗ 3 4000 м дымка 3/0
[Ci fib]
+11.2 +10.7 97 +9 +9 1020.7 998.4 +12.5
19 22.02 СЗ 2 4000 м дымка 5/0
[Ac und Ci fib]
+12.4 +11.6 95 +12 +12 1020.7 998.5
20 22.02 С 3 4000 м дымка 4/0
[Ac As Ci fib]
+12.0 +11.5 97 +10 +10 1021.3 999.0
21 22.02 С 2 4000 м дымка 6/6 240 м
[Cu Sc]
+12.0 +11.5 97 +11 +11 1021.7 999.4
22 22.02 С 4 7000 м дымка 6/6 270 м
[Cu Sc Ac As]
+11.8 +11.4 97 +9 +9 1021.9 999.6
23 22.02 В 1 4000 м дымка 4/4 450 м
[Cu med, cong Ac As]
+12.2 +11.6 96 +12 +12 1021.6 999.3
00 23.02 СВ 2 10 км 4/4 300 м
[Cu hum]
+12.4 +9.1 80 +11 +11 1021.3 999.1
01 23.02 СВ 3 10 км 4/4 300 м
[Cu hum]
+12.6 +6.0 64 +12 +12 1021.2 999.0
02 23.02 С 1 10 км 3/3 450 м
[Cu hum]
+12.2 +10.3 88 +12 +12 1020.7 998.4
03 23.02 С 1 10 км ясно +11.8 +10.7 93 +12 +12 1020.3 998.0
04 23.02 С 2 9000 м дымка 3/3 300 м
[Cu hum]
+11.6 +10.7 94 +10 +10 1020.1 997.8
05 23.02 СВ 6 10 км 5/5 300 м
[Cu Sc]
+10.2 +0.3 50 +7 +7 1020.1 997.7
06 23.02 СВ 14 20 км 4/3 300 м
[Cu hum Ac trans]
+9.6 -2.4 43 +5 +5 1019.5 997.1 +9.6
07 23.02 СВ 18 20 км 3/0
[Ac trans]
+8.4 -3.8 42 +3 +3 1020.7 998.1
08 23.02 С 12 30 км ясно +7.8 -4.0 43 +3 +3 1020.6 998.0
09 23.02 С 9 20 км ясно +7.4 -5.7 39 +3 +4 1020.4 997.8
10 23.02 С 11 20 км 3/3 450 м
[Cu hum]
+7.0 -5.7 40 +2 +2 1019.4 996.8
11 23.02 СВ 10 20 км 3/3 300 м
[Cu hum]
+6.8 -5.2 42 +2 +2 1019.6 996.9
12 23.02 С 20 20 км 3/3 300 м
[Cu hum]
+7.4 -4.4 43 +1 +1 1017.9 995.3
13 23.02 СВ 10 30 км ясно +7.6 -4.5 42 +3 +3 1019.8 997.2
14 23.02 СВ 12 30 км 3/3 240 м
[Cu med, cong]
+6.2 -5.4 43 +1 +1 1019.8 997.1
15 23.02 СВ 4 20 км ясно +6.6 -4.2 46 +4 +5 1020.5 997.8
16 23.02 СВ 8 20 км 3/3 450 м
[Cu hum]
+5.8 -2.3 56 +1 +1 1020.9 998.1
17 23.02 СВ 5 20 км 4/4 300 м
[Cu hum]
+6.0 -1.2 60 +2 +2 1021.0 998.2
18 23.02 С 4 20 км 4/4 450 м
[Cu hum]
+5.8 -1.4 60 +3 +3 1021.9 999.1 +12.5
20 23.02 С 5 20 км ясно +5.6 -3.5 52 +2 +2 1022.6 999.8
21 23.02 С 3 20 км ясно +5.8 -3.3 52 +3 +3 1022.8 1000.0
22 23.02 СВ 3 20 км ясно +5.8 -3.6 51 +3 +3 1022.8 1000.0
23 23.02 СВ 5 20 км ясно +5.6 -3.2 53 +2 +2 1023.0 1000.2
01 24.02 СВ 5 20 км ясно +5.6 -3.5 52 +2 +2 1024.0 1001.2

 

Местоположение метеостанции Понца (Италия): широта 40.92 долгота 12.95 высота над уровнем моря 185 м.

В архиве по умолчанию представлена погода на Понце за последнюю неделю. Архивные данные за месяц целиком и за предыдущие месяцы, начиная с января 2011 года, Вы можете получить, выбрав интересующий диапазон дат из раскрывающегося списка и нажав кнопку "Ввод!".


*Определитесь, кто Вы:
робот инопланетянин человек

Внимание! Время в таблицах - всемирное. Для получения местного времени необходимо прибавить поправку, которая равна 1 ч.

Смотрите также архив погоды в соседних городах и на ближайших метеорологических станциях:

Погода в Торре-Олеволе (Италия) (39 км)
Погода в Латине (Италия) (70 км)
Погода в Латине 2 (Италия) (70 км)
Погода во Фрозиноне (Италия) (84 км)
Погода в Пратика-ди-Маре (Италия) (91 км)
Погода в Граццанизе (Италия) (95 км)
Погода на Капри (Италия) (113 км)
Погода в Неаполе (Италия) (114 км)
Погода в Риме (Италия) (115 км)
Погода в Казерте (Италия) (116 км)

Пояснения к столбцам:

Ветер - указаны скорость ветра в м/с - средняя за 10 мин, порывы в срок и между сроками (в фигурных скобках) и направление, откуда дует ветер: С - северный, СВ - северо-восточный, В - восточный, ЮВ - юго-восточный, Ю - южный, ЮЗ - юго-западный, З - западный, СЗ - северо-западный.
Видимость - горизонтальная дальность видимости в метрах или километрах. При видимости от 1 до 10 км при отсутствии осадков обычно наблюдается дымка, при ухудшении видимости до 1 км и менее - туман. В сухую погоду видимость может ухудшаться дымом, пылью или мглою.
Явления - указаны атмосферные явления, наблюдавшиеся в срок или в последний час перед сроком; фигурными скобками обозначены явления, наблюдавшиеся между сроками (за 1-3 часа до срока); квадратными скобками обозначены град или гололедные отложения с указанием их диаметра в мм.
Облачность - указаны через наклонную черту общая и нижняя облачность в баллах и высота нижней границы облаков в метрах; квадратными скобками обозначены формы облаков: Ci - перистые, Cs - перисто-слоистые, Cc - перисто-кучевые, Ac - высококучевые, As - высокослоистые, Sc - слоисто-кучевые, Ns - слоисто-дождевые, Cu - кучевые, Cb - кучево-дождевые. Подробнее классификацию облаков см. в Атласе облаков (PDF).
T - Температура воздуха - температура, измеренная на высоте 2 м над землей.
Td - Температура точки росы - температура, при понижении до которой содержащийся в воздухе водяной пар достигнет насыщения.
f - Относительная влажность воздуха - влажноcть воздуха, измеренная на высоте 2 м над землей.
Te - Эффективная температура - температура, которую ощущает одетый по сезону человек в тени. Характеристика душности погоды. При расчете учитывается влияние влажности воздуха и скорости ветра на теплоощущения человека.
Tes - Эффективная температура на солнце - температура, которую ощущает человек, с поправкой на солнечный нагрев. Характеристика знойности погоды. Зависит от высоты солнца над горизонтом, облачности и скорости ветра. Ночью, в пасмурную погоду, а также при ветре 12 м/с и более поправка равна нулю.
P - Атмосферное давление - приведенное к уровню моря атмосферное давление.
Po - Атмосферное давление - измеренное на уровне метеостанции атмосферное давление.
Tmin - Минимальная температура - минимум температуры воздуха на высоте 2 м над землей.
Tmax - Максимальная температура - максимум температуры воздуха на высоте 2 м над землей.
R - Количество осадков - Количество выпавших осадков за период времени, мм. При наведении курсора мыши на число - период времени, за который выпало указанное количество осадков.
R24 - Количество осадков - Количество выпавших осадков за 24 часа, мм.
S - Снежный покров - Высота снежного покрова, см. При наведении курсора мыши на число - состояние снежного покрова и степень покрытия местности в баллах.